Location: Glens Falls
(43.3090°N, 73.6440°W)
Time: 01:09:12
(UTC-04:00)

ATLAS CENTAUR R/B - Pass Details

Date: 24 February 2018
Orbit: 467 x 686 km, 64.7° (Epoch: 17 May)

Event Time Altitude Azimuth Distance (km) Brightness Sun altitude
Rises 20:31:39 0° 317° (NW) 2,754 5.8 -32.1°
Reaches altitude 10° 20:33:57 10° 307° (NW) 1,892 4.8 -32.5°
Enters shadow 20:36:06 24° 285° (WNW) 1,230 3.6 -32.9°
